This is the latest recevied weather packets stored in our database for station/object OE9XVI-6. If no packets are shown the sender has not sent any weather packets the latest 10 day(s).
| Time | Temp. | Humidity | Pressure | Rain* | Wind** | Luminosity | Snow |
|---|---|---|---|---|---|---|---|
| 1777964814 | 13.33° C | 53% | 1010.7 hPa | 0 mm | - | - | - |
| 1777964214 | 12.78° C | 56% | 1010.8 hPa | 0 mm | - | - | - |
| 1777963614 | 12.78° C | 57% | 1010.7 hPa | 0 mm | - | - | - |
| 1777963014 | 12.22° C | 58% | 1010.7 hPa | 0 mm | - | - | - |
| 1777962414 | 12.22° C | 55% | 1010.8 hPa | 0 mm | - | - | - |
| 1777961814 | 11.67° C | 54% | 1010.7 hPa | 0 mm | - | - | - |
| 1777961214 | 11.67° C | 57% | 1010.7 hPa | 0 mm | - | - | - |
| 1777960614 | 11.67° C | 61% | 1010.7 hPa | 0 mm | - | - | - |
| 1777960014 | 11.67° C | 57% | 1010.7 hPa | 0 mm | - | - | - |
| 1777959414 | 11.11° C | 57% | 1010.8 hPa | 0 mm | - | - | - |
| 1777958814 | 10.56° C | 58% | 1010.8 hPa | 0 mm | - | - | - |
| 1777958214 | 10° C | 58% | 1010.7 hPa | 0 mm | - | - | - |
| 1777957614 | 10° C | 59% | 1010.8 hPa | 0 mm | - | - | - |
| 1777957014 | 9.44° C | 57% | 1010.9 hPa | 0 mm | - | - | - |
| 1777956414 | 9.44° C | 56% | 1010.9 hPa | 0 mm | - | - | - |
| 1777955814 | 9.44° C | 56% | 1010.8 hPa | 0 mm | - | - | - |
| 1777955214 | 8.89° C | 57% | 1010.8 hPa | 0 mm | - | - | - |
| 1777954615 | 8.89° C | 58% | 1010.7 hPa | 0 mm | - | - | - |
| 1777954015 | 8.89° C | 57% | 1010.9 hPa | 0 mm | - | - | - |
| 1777953415 | 8.89° C | 56% | 1010.8 hPa | 0 mm | - | - | - |
| 1777952815 | 8.89° C | 58% | 1011.1 hPa | 0 mm | - | - | - |
| 1777952215 | 9.44° C | 59% | 1011.2 hPa | 0 mm | - | - | - |
| 1777951615 | 8.89° C | 58% | 1011.3 hPa | 0 mm | - | - | - |
| 1777951015 | 9.44° C | 56% | 1011.3 hPa | 0 mm | - | - | - |
| 1777950415 | 9.44° C | 57% | 1011.4 hPa | 0 mm | - | - | - |
* Rain latest hour (hover to see other rain measurements)
** Current wind speed in m/s (hover to see current wind gust speed)